Location: A�t �Alizem
(31.2076°N, 8.7872°W)
Time: 22:26:31
(UTC+00:00)

THORAD AGENA D DEB - Visible Passes

Search period start: 24 June 2021 00:00
Search period end: 04 July 2021 00:00
Orbit: 931 x 1050 km, 99.9° (Epoch: 24 June)

Date Brightness Start Highest point End Pass type
(mag) Time Alt. Az. Time Alt. Az. Time Alt. Az.
24 Jun ? 20:38:52 10° NNE 20:45:02 46° E 20:51:03 10° S visible
24 Jun ? 22:23:02 10° NNW 22:28:03 24° WNW 22:33:00 10° WSW visible
25 Jun ? 21:07:46 10° NNE 21:14:16 82° ESE 21:20:35 10° SSW visible
25 Jun ? 22:53:48 10° NNW 22:56:48 14° WNW 22:59:47 10° W visible
26 Jun ? 21:37:02 10° N 21:43:21 58° WNW 21:49:31 10° SSW visible
27 Jun ? 20:23:21 10° NE 20:29:03 33° E 20:34:36 10° SSE visible
27 Jun ? 22:06:40 10° N 22:12:18 33° WNW 22:17:51 10° SW visible
28 Jun ? 20:51:58 10° NNE 20:58:19 59° ESE 21:04:29 10° S visible
28 Jun ? 22:36:50 10° NNW 22:41:08 19° WNW 22:45:22 10° WSW visible
29 Jun ? 21:21:02 10° NNE 21:27:29 80° WNW 21:33:44 10° SSW visible
29 Jun ? 23:09:19 10° NW 23:09:48 10° WNW 23:10:17 10° WNW visible
30 Jun ? 20:08:02 10° NE 20:12:59 23° E 20:17:48 10° SSE visible
30 Jun ? 21:50:27 10° N 21:56:30 45° WNW 22:02:25 10° SW visible
01 Jul ? 20:36:19 10° NNE 20:42:20 42° E 20:48:10 10° S visible
01 Jul ? 22:20:16 10° NNW 22:25:24 26° WNW 22:30:26 10° WSW visible
02 Jul ? 21:05:08 10° NNE 21:11:34 76° ESE 21:17:46 10° S visible
02 Jul ? 22:50:53 10° NNW 22:54:09 15° WNW 22:57:24 10° W visible
03 Jul ? 21:34:20 10° N 21:40:39 62° WNW 21:46:46 10° SSW visible
